Regional Weather Roundup
Issued by NWS

Home | Current Version | Previous Version | Graphics & Text | Print | Product List | Glossary On
Versions: 1 2 3 4 5 6 7 8 9 10 11 12 13 14 15 16 17 18 19 20 21 22 23 24 25 26 27
000
ASUS45 KBOU 040707
RWRCO

WEATHER ROUNDUP FOR COLORADO
NATIONAL WEATHER SERVICE DENVER/BOULDER CO
1200 AM MST SUN DEC 04 2016

NOTE: "FAIR" INDICATES FEW OR NO CLOUDS BELOW 12000 FEET WITH NO
SIGNIFICANT WEATHER AND/OR OBSTRUCTIONS TO VISIBILITY.

COZ001>005-013-030-031-040800-
...NORTHWEST COLORADO...

CITY           SKY/WX    TMP DP  RH WIND       PRES   REMARKS
CRAIG          CLOUDY    15   9  76 CALM      30.21R
HAYDEN         CLOUDY    21  12  68 CALM      30.20R
MEEKER         FAIR       6   3  87 CALM      30.22R
MOUNT WERNER   NOT AVBL
STEAMBOAT SPGS CLOUDY    16  13  88 E6        30.18R WCI   8
WALDEN           N/A     18  10  73 SW9       30.11R WCI   6
$$

COZ006>008-011-040800-
...WEST CENTRAL VALLEYS...

CITY           SKY/WX    TMP DP  RH WIND       PRES   REMARKS
GRAND JUNCTION FAIR      22  17  81 CALM      30.25R
MONTROSE       FAIR      20  12  71 SE12      30.26R WCI   8
EAGLE          FAIR      12   7  80 E7        30.23R WCI   1
RIFLE          FAIR      18  12  77 CALM      30.25R
DELTA          FAIR      22  16  77 NE5       30.25R WCI  16
NUCLA          FAIR      19  12  73 SE7       30.25S WCI  10
$$

COZ017>023-064>068-040800-
...SOUTHWEST COLORADO...

CITY           SKY/WX    TMP DP  RH WIND       PRES   REMARKS
DURANGO        FAIR      20  17  88 NE3       30.09R
CORTEZ         FAIR      18  13  80 E8        30.14R WCI   8
PAGOSA SPRINGS FAIR      19  19  97 CALM      30.09R
TELLURIDE      FAIR      12   7  79 SE7       30.17R WCI   1
WOLF CREEK PAS FAIR      14 -13  29 NW13G20   30.09R WCI   0
$$

COZ009-010-012-014-032>034-037-058>063-040800-
...CENTRAL COLORADO...

CITY           SKY/WX    TMP DP  RH WIND       PRES   REMARKS
ASPEN          FAIR      11   5  77 SW8       30.15F WCI  -1
BUENA VISTA    FAIR      19   4  51 NW9       30.09R WCI   8
COPPER MTN     CLOUDY     9   0  66 SW3       30.02F
BERTHOUD PASS  CLOUDY     0 -13  55 NW29G39   29.92F WCI -26
COTTONWOOD PAS FAIR      19   3  49 SE6       30.04R WCI  11
GUNNISON       FAIR       6   1  80 CALM      30.20R
KREMMLING      CLOUDY    27  14  59 SW5       30.16R WCI  21
LEADVILLE      FAIR       7  -1  70 VRB6      30.08S WCI  -3
MONARCH PASS   CLOUDY     5   1  85 SW26G35   30.11R WCI -18
SALIDA         FAIR      15   6  70 NW8       30.17R WCI   3
SUNLIGHT       FAIR       7   3  85 SW8       30.14F WCI  -6
WILKERSON PASS FAIR       9   0  66 NW7       30.01S WCI  -3
$$

COZ069>075-040800-
...SAN LUIS VALLEY/SANGRE DE CRISTO MOUNTAINS...

CITY           SKY/WX    TMP DP  RH WIND       PRES   REMARKS
ALAMOSA        FAIR       0  -2  91 CALM      30.11S
LA VETA PASS   FAIR      14  10  85 NE16      30.01F WCI  -2
SAGUACHE       FAIR      18   5  57 NW13      30.12R WCI   4
$$

COZ035-036-038>040-040800-
...NORTHERN COLORADO FRONT RANGE...

CITY           SKY/WX    TMP DP  RH WIND       PRES   REMARKS
DENVER INTL AP FAIR      23   9  55 W10       30.02F WCI  12
DMNS CITY PARK   N/A     29   6  36 E9        30.04S WCI  21
AURORA         CLEAR     21  10  60 S8        30.03F WCI  12
FRONT RANGE AP FAIR      30  12  47 SW9       30.03F WCI  22
ERIE MUNI ARPT FAIR      32   8  36 W12G17    30.03F WCI  23
BOULDER MUN AP FAIR      34   7  32 W16G28    30.02F WCI  23
CENTENNIAL     FAIR      23   8  52 SW6       30.02F WCI  16
BROOMFIELD     FAIR      32   7  34 NW16      30.02F WCI  21
FORT COLLINS   FAIR      25  10  54 CALM      30.04S
LONGMONT       FAIR      22   8  56 CALM      30.05S
$$

COZ041-046-047-076>085-087-088-040800-
...PIKES PEAK/PALMER DIVIDE AND SOUTHERN FOOTHILLS...

CITY           SKY/WX    TMP DP  RH WIND       PRES   REMARKS
COLO. SPRINGS  FAIR      25   8  48 W3        30.06R
A. F. ACADEMY  FAIR      23   4  44 W5G17     30.03R WCI  17
SCHRIEVER AFB  NOT AVBL
ELLICOTT       FAIR       1  32 100 E3        30.04R
FALCON         FAIR      22   6  50 NW12      30.04R WCI  10
FORT CARSON    FAIR      27   9  45 SW5       30.04R WCI  22
LIMON          FAIR      15  10  80 N7        30.05S WCI   5
MONUMENT HILL  FAIR      18   5  57 SW7       30.03S WCI   8
TRINIDAD       FAIR      21  13  71 W9        30.06F WCI  11
$$

COZ042>045-048>051-090-091-040800-
...NORTHEAST COLORADO...

CITY           SKY/WX    TMP DP  RH WIND       PRES   REMARKS
GREELEY ARPT   FAIR      17  13  84 CALM      30.06S
AKRON          FAIR      22  10  60 W9        30.02S WCI  12
BURLINGTON     FAIR      20  11  68 W10       30.04F WCI   9
WRAY           NOT AVBL
STERLING       FAIR      28  14  54 W12       30.02S WCI  18
HOLYOKE        FAIR      23  16  74 W9        30.02F WCI  13
FORT MORGAN    FAIR      20  10  66 W7        30.04S WCI  11
$$

COZ086-089-092>099-040800-
...SOUTHEAST COLORADO...

CITY           SKY/WX    TMP DP  RH WIND       PRES   REMARKS
PUEBLO         FAIR      18  11  74 VRB5      30.06F WCI  11
LA JUNTA       FAIR      21  16  81 W7        30.07F WCI  12
LAMAR          MOCLDY    21  19  92 S8        30.06F FOG     WCI  11
SPRINGFIELD      N/A     21  20  96 W8        30.04R WCI  11
$$




USA.gov is the U.S. government's official web portal to all federal, state and local government web resources and services.